Torna al catalogo

STARLINK-3068

AttivoComunicazioniVLEO
NORAD 49154·PAYLOAD·🇺🇸 United States

Lanciato Sep 14, 2021 da Vandenberg Space Force Base

Loading…

Prossimi Passaggi (prossime 24 ore)

TLE

AggiornatoSource: CelesTrak SupGP

Epoca: Sep 15, 2026, 02:03 UTC

1 49154C 21082AA  26258.08590278  .00016698  00000+0  14288-2 0  2580
2 49154  70.0012 158.2974 0002926 274.5609  46.1370 14.97515106    14

Traccia STARLINK-3068 in tempo reale con AllMySat

Download on the App Store